Simultaneous Nadir Overpasses (SNOs) Predictions

Prediction of SNOs between NPP and GCOM-C Satellite Orbit:

Table of predicted SNOs for the next 14.0 days since TLE Epoch: 9/14/2024
Index Date (NPP) Time (NPP) Lat,Lon (NPP) SZA (NPP ) Date (GCOM-C) Time (GCOM-C) Lat,Lon (GCOM-C) SZA (GCOM-C ) Distance(km) Time Diff (sec)
1 09/25/2024 15:18:35 69.78, -52.95 70.89 09/25/2024 15:19:44 69.70, -51.36 70.81 61.76 69
2 09/25/2024 16:09:10 -69.30, 115.07 109.59 09/25/2024 16:10:23 -69.23, 115.34 109.66 13.57 73
3 09/25/2024 16:59:53 69.16, -77.42 70.29 09/25/2024 17:00:51 69.16, -77.36 70.29 2.50 58
4 09/25/2024 17:50:36 -69.10, 89.97 109.76 09/25/2024 17:51:22 -69.11, 89.95 109.75 1.33 46
5 09/25/2024 18:41:21 69.07,-102.67 70.22 09/25/2024 18:41:49 69.10,-102.68 70.25 3.40 28
6 09/25/2024 19:32:05 -69.06, 64.65 109.77 09/25/2024 19:32:20 -69.05, 64.63 109.79 1.91 15
7 09/25/2024 20:22:50 69.03,-127.99 70.21 09/25/2024 20:22:47 69.03,-128.01 70.22 0.84 3
8 09/25/2024 21:13:34 -69.02, 39.33 109.78 09/25/2024 21:13:17 -69.04, 39.38 109.77 2.52 17
9 09/25/2024 22:04:19 68.99,-153.31 70.20 09/25/2024 22:03:45 68.97,-153.33 70.18 2.22 34
10 09/25/2024 22:55:03 -68.99, 14.01 109.79 09/25/2024 22:54:15 -68.98, 14.06 109.81 2.29 48
11 09/25/2024 23:45:48 68.95,-178.63 70.19 09/25/2024 23:44:42 68.96,-178.58 70.20 2.54 66
12 09/26/2024 00:36:29 -68.79, -11.10 109.97 09/26/2024 00:35:15 -68.81, -11.41 109.95 12.61 74
13 09/26/2024 01:27:02 68.11, 157.10 69.37 09/26/2024 01:25:54 68.14, 155.13 69.40 81.95 68



Historial Predications of SNOs between NPP and GCOM-C
